Terminal Aerodrome Forecast
Issued by NWS

Home | Current Version | Previous Version | Text Only | Print | Product List | Glossary On
Versions: 1 2 3 4 5 6 7 8 9 10 11 12 13 14 15 16 17 18 19 20 21 22 23 24 25 26 27 28 29 30 31 32 33
000
FTPQ31 PGUM 300500
TAFGSN
TAF
PGSN 300533Z 3006/0106 28010G15KT 5SM RA BR SCT015 BKN035
      TEMPO 3006/3008 3SM RA BKN015
     FM300800 27028G40KT 5SM -RA BR VCTS SCT015CB BKN030
     FM301600 20020G30KT P6SM VCSH SCT015CB BKN035=

USA.gov is the U.S. government's official web portal to all federal, state and local government web resources and services.